Temp
-7 -7 -7 -7 -8 -8 -7 -8 -8 -8 -8 -7 -7 -7 -7 -8 -9 -9 -10 -11 -11 -11 -11 -11 -10 -10 -11 -11 -10 -10 -9 -8 -8 -8 -9 -9 -8 -8 -8 -8 -8 -8 -7 -6 -5
-8 -8 -8 -8 -8 -8 -8 -8 -8 -8 -8 -8 -8 -8 -8 -8 -9 -10 -10 -11 -12 -12 -12 -12 -11 -11 -11 -11 -11 -11 -10 -9 -9 -9 -9 -9 -9 -9 -8 -8 -8 -8 -6 -6 -6
-8 -8 -8 -8 -8 -8 -9 -9 -8 -8 -8 -8 -8 -8 -8 -9 -9 -9 -11 -12 -12 -12 -12 -12 -12 -12 -11 -11 -11 -11 -9 -10 -10 -10 -10 -10 -9 -9 -9 -8 -8 -8 -7 -7 -7
-8 -8 -8 -8 -8 -8 -8 -9 -9 -9 -8 -9 -9 -8 -9 -9 -12 -10 -12 -12 -13 -13 -13 -13 -13 -12 -12 -11 -12 -12 -11 -11 -10 -10 -10 -9 -10 -9 -9 -8 -8 -9 -7 -8 -7
-8 -8 -8 -8 -8 -8 -8 -9 -9 -10 -10 -10 -10 -9 -9 -11 -13 -14 -13 -13 -13 -13 -13 -14 -13 -13 -12 -13 -13 -12 -12 -12 -11 -11 -11 -11 -10 -9 -9 -8 -9 -9 -8 -8 -7
-8 -8 -8 -8 -8 -8 -8 -8 -10 -10 -10 -10 -10 -9 -9 -12 -14 -15 -15 -15 -15 -14 -14 -15 -14 -14 -13 -13 -13 -13 -13 -13 -12 -11 -11 -10 -10 -10 -9 -9 -9 -8 -8 -8 -8
-8 -8 -8 -8 -8 -8 -8 -8 -9 -10 -10 -10 -10 -10 -10 -15 -15 -16 -16 -16 -16 -15 -15 -16 -16 -15 -14 -14 -14 -14 -14 -13 -12 -11 -11 -11 -10 -9 -10 -10 -9 -9 -9 -8 -9
-8 -9 -8 -8 -8 -8 -8 -8 -9 -10 -10 -10 -11 -11 -11 -16 -16 -16 -17 -17 -17 -17 -16 -16 -17 -16 -15 -15 -15 -15 -15 -13 -11 -12 -11 -11 -9 -10 -10 -10 -9 -10 -9 -8 -9
-8 -8 -8 -8 -8 -8 -8 -8 -9 -10 -10 -11 -12 -13 -14 -15 -17 -17 -17 -18 -18 -18 -17 -17 -17 -17 -16 -16 -16 -15 -14 -13 -12 -12 -12 -12 -10 -11 -11 -11 -10 -10 -10 -9 -9
-8 -8 -8 -8 -8 -8 -8 -9 -10 -10 -11 -12 -13 -15 -16 -16 -17 -18 -18 -18 -18 -18 -18 -17 -18 -17 -17 -16 -15 -14 -14 -14 -12 -13 -14 -13 -11 -11 -11 -11 -11 -11 -10 -9 -9
-8 -8 -8 -8 -9 -9 -9 -10 -11 -12 -12 -13 -14 -15 -17 -17 -18 -18 -18 -18 -19 -19 -19 -18 -18 -16 -16 -18 -17 -18 -17 -15 -14 -14 -15 -13 -12 -12 -12 -11 -11 -11 -11 -10 -9
-8 -8 -9 -9 -9 -9 -11 -12 -12 -14 -14 -15 -16 -17 -17 -18 -18 -18 -19 -19 -19 -20 -19 -19 -17 -18 -20 -20 -19 -18 -17 -16 -15 -14 -16 -14 -13 -13 -12 -11 -11 -11 -11 -10 -10
-8 -9 -9 -9 -9 -11 -12 -13 -14 -14 -16 -16 -17 -18 -18 -19 -19 -20 -20 -20 -20 -20 -20 -20 -19 -20 -20 -20 -19 -19 -19 -16 -16 -17 -17 -16 -14 -15 -12 -11 -10 -11 -11 -11 -10
-9 -8 -9 -9 -10 -11 -12 -14 -15 -15 -18 -18 -18 -18 -19 -20 -20 -21 -21 -21 -21 -21 -21 -21 -20 -21 -21 -20 -20 -19 -18 -18 -17 -18 -18 -17 -15 -14 -13 -12 -10 -10 -11 -11 -10
-8 -8 -9 -10 -11 -12 -14 -15 -16 -17 -19 -19 -19 -19 -20 -21 -21 -21 -22 -22 -22 -22 -22 -21 -21 -22 -22 -20 -21 -20 -20 -19 -18 -18 -19 -18 -18 -13 -15 -15 -12 -11 -11 -11 -10
-8 -8 -8 -10 -11 -13 -15 -17 -18 -19 -19 -20 -20 -21 -21 -22 -23 -23 -23 -23 -23 -23 -23 -22 -22 -22 -21 -21 -21 -20 -20 -19 -19 -19 -20 -17 -18 -15 -15 -13 -12 -11 -11 -11 -11
-9 -8 -9 -11 -11 -13 -16 -18 -19 -20 -20 -20 -21 -22 -23 -23 -23 -23 -24 -24 -24 -24 -24 -23 -23 -23 -22 -22 -22 -21 -21 -20 -20 -20 -19 -18 -18 -16 -15 -14 -13 -12 -12 -11 -11
-9 -9 -10 -12 -12 -15 -17 -20 -21 -21 -21 -21 -22 -23 -24 -24 -24 -24 -24 -24 -25 -25 -25 -25 -23 -25 -24 -25 -24 -22 -22 -22 -21 -19 -17 -17 -18 -15 -15 -14 -14 -12 -12 -11 -11
-9 -9 -11 -11 -13 -15 -19 -21 -21 -22 -22 -23 -23 -24 -24 -25 -25 -25 -25 -25 -26 -26 -26 -25 -26 -26 -25 -25 -25 -23 -24 -22 -22 -21 -20 -18 -18 -16 -15 -16 -16 -15 -14 -12 -11
-10 -10 -11 -12 -14 -17 -21 -22 -22 -23 -23 -24 -24 -25 -25 -25 -25 -26 -26 -26 -26 -26 -26 -26 -27 -27 -26 -26 -24 -24 -23 -23 -22 -22 -21 -19 -18 -16 -16 -16 -15 -16 -15 -13 -11
-9 -10 -11 -14 -16 -20 -23 -23 -24 -24 -24 -25 -25 -25 -26 -26 -26 -26 -26 -27 -27 -27 -27 -27 -27 -26 -27 -26 -24 -23 -23 -23 -21 -22 -21 -19 -18 -15 -17 -16 -16 -15 -14 -14 -12
-10 -11 -13 -15 -17 -21 -23 -24 -25 -25 -25 -25 -26 -26 -26 -26 -26 -26 -26 -27 -27 -27 -27 -28 -28 -27 -26 -26 -25 -24 -23 -23 -23 -22 -21 -20 -17 -16 -17 -16 -16 -16 -15 -15 -14
-12 -12 -14 -16 -19 -21 -24 -25 -25 -25 -26 -26 -26 -26 -26 -26 -26 -27 -27 -27 -27 -28 -28 -28 -28 -28 -27 -26 -25 -25 -24 -23 -22 -22 -22 -20 -16 -16 -16 -17 -16 -16 -15 -15 -15
-12 -13 -14 -16 -19 -23 -25 -25 -25 -25 -26 -26 -26 -26 -27 -27 -27 -27 -27 -28 -28 -28 -28 -28 -29 -28 -27 -26 -26 -25 -25 -24 -24 -22 -21 -17 -17 -17 -16 -16 -16 -16 -15 -14 -15
-13 -14 -15 -16 -19 -23 -25 -26 -25 -25 -26 -26 -26 -27 -27 -27 -28 -28 -28 -28 -28 -29 -29 -29 -28 -29 -27 -27 -26 -26 -25 -24 -24 -23 -20 -19 -18 -18 -17 -16 -16 -17 -16 -15 -15
-13 -15 -15 -16 -21 -25 -25 -25 -26 -26 -26 -27 -26 -27 -27 -28 -28 -28 -28 -29 -29 -29 -29 -29 -28 -28 -28 -27 -27 -26 -25 -24 -23 -22 -20 -19 -17 -17 -17 -17 -16 -16 -17 -15 -14
-14 -14 -16 -19 -24 -25 -25 -26 -26 -26 -26 -27 -27 -28 -28 -28 -28 -29 -28 -29 -29 -29 -29 -29 -29 -29 -28 -28 -27 -26 -26 -24 -23 -23 -21 -19 -18 -20 -19 -18 -17 -17 -16 -16 -15
Height
5805 5801 5796 5791 5786 5781 5776 5771 5765 5760 5754 5748 5743 5738 5733 5729 5724 5722 5721 5722 5719 5720 5719 5720 5720 5722 5724 5728 5730 5730 5729 5734 5748 5753 5763 5760 5758 5763 5767 5770 5773 5774 5774 5774 5779
5800 5795 5791 5785 5780 5773 5767 5761 5756 5749 5743 5737 5730 5725 5720 5715 5711 5709 5705 5704 5703 5704 5705 5705 5706 5705 5709 5713 5716 5716 5719 5730 5741 5743 5746 5748 5748 5754 5757 5762 5766 5767 5766 5769 5772
5794 5789 5783 5778 5772 5765 5758 5751 5744 5737 5731 5725 5718 5712 5706 5699 5697 5694 5688 5687 5687 5688 5691 5689 5691 5689 5694 5697 5703 5706 5711 5721 5728 5732 5733 5736 5738 5745 5747 5752 5759 5760 5759 5765 5765
5787 5782 5775 5769 5763 5757 5749 5742 5734 5726 5718 5711 5706 5700 5693 5684 5679 5676 5672 5673 5673 5673 5674 5675 5675 5675 5679 5685 5688 5688 5700 5707 5715 5720 5723 5727 5730 5735 5738 5745 5750 5750 5749 5756 5758
5780 5773 5766 5760 5754 5747 5739 5730 5721 5714 5705 5697 5691 5685 5679 5672 5667 5653 5656 5656 5657 5657 5657 5659 5661 5660 5664 5668 5671 5677 5689 5691 5699 5706 5711 5714 5720 5726 5729 5736 5740 5741 5739 5750 5751
5771 5764 5757 5750 5743 5735 5728 5721 5712 5700 5690 5681 5675 5668 5659 5655 5647 5643 5641 5637 5641 5642 5641 5642 5645 5645 5650 5655 5658 5668 5669 5675 5683 5694 5698 5703 5707 5713 5722 5726 5730 5733 5734 5743 5744
5764 5755 5748 5740 5732 5723 5716 5708 5699 5686 5675 5667 5658 5650 5646 5640 5631 5627 5626 5626 5622 5626 5627 5628 5628 5630 5634 5642 5648 5653 5653 5659 5668 5684 5690 5691 5692 5704 5715 5717 5721 5725 5727 5734 5740
5753 5744 5735 5727 5718 5709 5699 5692 5684 5673 5660 5651 5640 5632 5630 5624 5617 5614 5611 5610 5608 5610 5613 5612 5614 5617 5622 5630 5632 5637 5642 5645 5667 5673 5682 5677 5687 5698 5704 5707 5712 5717 5721 5725 5732
5740 5731 5721 5713 5704 5695 5686 5678 5667 5658 5649 5634 5624 5615 5615 5610 5604 5601 5599 5597 5597 5596 5599 5600 5600 5606 5612 5616 5617 5622 5630 5639 5657 5663 5668 5661 5676 5687 5690 5696 5702 5708 5713 5717 5723
5729 5719 5709 5701 5690 5681 5670 5660 5651 5642 5630 5620 5610 5602 5602 5597 5592 5591 5586 5586 5586 5586 5587 5588 5587 5593 5601 5604 5607 5619 5620 5626 5635 5647 5642 5649 5658 5668 5674 5681 5689 5697 5704 5710 5714
5716 5706 5696 5687 5676 5663 5652 5641 5633 5620 5617 5605 5593 5587 5583 5582 5580 5579 5575 5575 5574 5575 5575 5575 5576 5586 5597 5595 5599 5598 5602 5609 5621 5630 5626 5635 5642 5648 5660 5667 5675 5686 5693 5701 5706
5705 5694 5682 5673 5661 5647 5635 5624 5611 5603 5593 5589 5580 5572 5573 5568 5566 5564 5565 5565 5564 5565 5563 5565 5571 5579 5574 5575 5580 5584 5589 5597 5608 5615 5614 5623 5626 5630 5639 5653 5664 5674 5683 5691 5698
5693 5679 5669 5657 5642 5629 5616 5603 5592 5583 5577 5578 5568 5563 5559 5555 5553 5554 5554 5554 5554 5554 5554 5555 5563 5560 5561 5563 5567 5572 5578 5590 5594 5599 5600 5605 5604 5610 5625 5636 5648 5659 5671 5679 5688
5681 5666 5653 5639 5625 5611 5599 5587 5577 5567 5558 5558 5558 5553 5549 5544 5544 5542 5543 5545 5545 5544 5542 5546 5552 5551 5550 5553 5561 5560 5577 5579 5579 5582 5582 5598 5588 5597 5611 5620 5633 5648 5659 5668 5678
5667 5653 5638 5622 5609 5595 5583 5571 5561 5556 5548 5537 5541 5540 5538 5534 5533 5534 5534 5533 5534 5533 5531 5540 5539 5538 5540 5547 5544 5547 5558 5558 5563 5567 5572 5577 5578 5584 5594 5603 5617 5636 5650 5658 5671
5651 5637 5627 5612 5597 5582 5570 5557 5550 5545 5536 5532 5529 5526 5524 5523 5521 5522 5522 5521 5520 5520 5518 5522 5524 5523 5527 5528 5529 5537 5536 5542 5548 5552 5546 5563 5567 5568 5580 5596 5611 5627 5636 5647 5660
5635 5622 5609 5597 5583 5567 5555 5545 5539 5534 5529 5525 5520 5515 5512 5513 5513 5512 5512 5510 5508 5504 5506 5506 5507 5506 5506 5505 5513 5519 5524 5527 5528 5530 5533 5551 5549 5556 5575 5585 5598 5612 5624 5637 5647
5624 5607 5594 5579 5565 5552 5541 5534 5531 5525 5523 5515 5510 5506 5505 5503 5504 5503 5504 5502 5498 5495 5489 5484 5488 5489 5492 5486 5493 5502 5510 5512 5513 5521 5532 5546 5530 5545 5570 5580 5589 5598 5611 5622 5634
5610 5597 5583 5567 5550 5537 5528 5524 5521 5519 5515 5507 5501 5498 5498 5496 5496 5495 5494 5494 5492 5488 5481 5472 5470 5472 5476 5477 5482 5492 5487 5506 5507 5514 5519 5522 5529 5546 5554 5563 5572 5582 5593 5605 5621
5595 5581 5568 5548 5533 5523 5518 5516 5513 5512 5505 5498 5494 5492 5490 5488 5488 5488 5487 5485 5482 5476 5471 5468 5459 5464 5466 5466 5474 5476 5489 5494 5495 5497 5506 5510 5517 5527 5542 5552 5565 5570 5581 5593 5609
5582 5566 5549 5535 5521 5516 5512 5507 5502 5499 5496 5492 5487 5485 5483 5481 5480 5477 5478 5478 5473 5469 5466 5460 5457 5458 5458 5463 5469 5472 5474 5481 5488 5493 5497 5502 5511 5530 5538 5545 5554 5560 5574 5588 5601
5569 5554 5543 5525 5516 5506 5500 5494 5489 5487 5485 5483 5480 5477 5475 5471 5471 5469 5470 5468 5464 5462 5460 5454 5451 5449 5452 5457 5459 5464 5472 5476 5478 5485 5491 5501 5508 5521 5524 5537 5548 5554 5565 5581 5589
5559 5543 5529 5514 5504 5494 5489 5485 5482 5480 5477 5474 5471 5469 5466 5464 5463 5464 5462 5459 5456 5454 5450 5448 5447 5444 5448 5451 5450 5451 5457 5462 5468 5476 5485 5497 5503 5504 5518 5528 5540 5547 5555 5567 5576
5547 5532 5517 5502 5490 5480 5476 5476 5474 5472 5469 5466 5463 5458 5457 5456 5455 5456 5453 5451 5449 5447 5443 5441 5442 5441 5443 5439 5442 5445 5449 5454 5458 5468 5475 5489 5496 5506 5511 5515 5534 5542 5550 5561 5570
5536 5524 5508 5491 5480 5473 5469 5467 5465 5462 5459 5456 5454 5451 5450 5449 5447 5446 5446 5444 5442 5441 5437 5436 5435 5435 5436 5436 5437 5440 5444 5449 5455 5463 5473 5475 5482 5492 5507 5517 5522 5529 5540 5552 5561
5527 5510 5496 5483 5471 5465 5465 5463 5457 5453 5451 5447 5446 5442 5443 5441 5439 5438 5436 5436 5436 5434 5430 5428 5428 5427 5430 5432 5432 5436 5443 5445 5453 5462 5466 5470 5479 5489 5501 5507 5513 5522 5532 5541 5552
5510 5499 5482 5471 5462 5456 5455 5453 5450 5445 5443 5439 5437 5434 5433 5431 5431 5431 5431 5430 5428 5427 5422 5420 5420 5421 5424 5426 5427 5436 5440 5443 5450 5456 5457 5466 5470 5476 5486 5496 5507 5515 5523 5531 5540
Wind_Speed
32 34 36 38 39 40 41 42 44 47 47 50 51 55 57 59 61 61 59 53 50 44 46 44 46 51 53 53 54 54 56 55 48 50 41 41 44 39 39 36 34 34 36 38 39
34 37 39 42 43 45 46 46 47 48 49 50 52 55 58 61 63 63 63 56 52 47 47 46 47 53 54 54 55 58 57 50 47 45 47 47 49 43 43 38 35 35 41 36 38
40 41 42 43 43 45 48 50 53 54 53 51 50 51 57 63 65 67 62 59 54 51 48 51 50 57 55 57 56 58 58 52 47 49 48 52 53 46 45 42 34 37 40 35 39
39 39 41 42 45 47 51 52 54 57 58 56 53 53 57 65 63 67 64 58 53 51 51 53 54 58 60 57 60 62 58 54 47 49 49 51 52 50 48 44 37 40 42 37 38
41 45 46 47 51 50 52 55 58 59 61 61 58 56 60 66 58 60 62 54 49 48 53 52 55 59 61 62 62 61 58 58 52 47 51 51 53 51 51 46 41 43 45 37 39
48 49 52 54 54 54 54 54 56 60 59 62 60 59 64 68 62 50 46 49 42 45 50 52 54 60 62 62 63 58 61 61 58 51 50 55 54 54 52 49 46 44 45 36 43
51 52 54 53 57 59 60 63 58 59 61 61 60 63 64 61 60 52 46 41 42 43 48 49 55 59 61 61 61 61 63 63 62 56 53 52 58 62 52 52 49 46 46 41 38
57 57 59 60 61 64 67 67 62 60 62 59 64 69 67 62 58 49 45 40 40 42 45 48 53 58 60 60 61 59 63 65 56 55 54 56 57 51 51 53 52 49 46 44 38
60 62 62 65 66 70 72 74 65 60 57 62 67 71 67 64 55 51 44 41 38 39 43 46 51 54 57 59 61 62 63 61 55 54 55 60 58 49 50 53 54 53 50 46 44
65 65 67 68 71 73 76 71 63 63 56 60 63 67 60 57 53 45 44 40 36 36 39 45 49 49 53 57 58 57 62 62 61 54 59 59 61 56 51 52 55 56 54 48 48
68 68 68 71 74 77 73 68 64 56 51 55 60 64 59 59 55 51 46 38 34 33 35 43 49 48 45 50 51 52 56 58 58 53 55 59 59 57 55 53 54 57 57 53 51
71 71 73 76 77 76 71 67 51 52 53 54 63 64 58 58 59 51 38 34 32 29 34 39 40 39 45 49 52 51 52 55 53 53 52 50 57 57 57 60 57 58 60 57 53
74 76 75 77 76 75 71 57 54 57 61 59 61 58 60 55 49 43 37 31 30 29 32 37 35 42 45 49 53 55 53 53 54 50 53 53 58 54 56 62 63 62 63 62 57
78 78 78 78 79 76 71 61 52 59 61 60 56 56 52 48 45 36 33 30 28 29 34 36 35 40 42 45 46 54 49 50 51 51 52 44 54 57 55 60 67 67 65 66 60
80 82 80 82 82 79 68 58 53 54 51 61 57 53 51 44 37 36 26 27 26 29 33 30 35 40 43 42 45 49 49 56 55 54 50 48 57 53 55 61 66 67 69 69 62
82 85 85 83 83 80 68 52 47 52 59 57 53 48 42 38 31 27 26 26 26 26 30 31 36 43 44 43 45 46 53 56 57 59 63 44 54 56 59 57 66 69 72 72 65
85 88 87 85 88 81 65 48 43 48 54 57 49 46 37 30 27 26 24 23 26 30 32 36 34 34 45 47 46 47 50 56 60 63 58 52 53 59 55 55 63 70 70 75 69
87 88 87 90 88 78 60 44 40 48 50 50 45 41 32 31 25 25 22 23 23 28 36 41 38 33 41 40 38 44 47 54 61 63 57 51 64 57 57 62 60 69 69 73 73
88 89 88 92 86 78 58 47 38 41 43 41 38 35 30 28 28 23 23 23 23 27 32 39 35 31 27 29 32 34 45 45 50 55 57 42 64 53 55 60 48 60 68 74 79
89 89 94 93 87 73 50 35 37 40 37 32 34 32 28 31 28 25 25 26 25 28 30 29 33 19 18 28 29 32 32 40 47 53 59 60 24 53 55 62 59 60 67 70 75
92 93 96 90 78 60 44 41 43 34 32 36 36 35 30 29 32 29 25 25 28 25 31 31 26 18 18 23 25 23 31 44 33 43 60 35 44 35 39 29 54 53 65 62 71
93 92 91 83 76 58 41 42 46 44 39 34 32 31 33 34 30 26 23 30 30 26 34 29 22 20 14 21 25 23 20 39 43 50 37 51 42 42 31 37 31 42 58 51 56
88 90 90 80 66 57 46 35 23 21 25 32 34 41 36 32 28 25 28 29 28 28 32 27 22 20 7 17 32 29 31 44 39 48 51 46 30 23 32 23 28 31 51 51 52
88 89 90 81 66 54 45 36 34 33 29 33 36 36 32 24 27 28 28 28 28 27 30 25 18 26 18 20 15 31 35 45 48 36 48 52 30 30 36 34 30 32 38 52 44
86 87 84 79 63 48 32 44 29 28 30 33 32 33 29 30 28 25 24 29 24 24 27 27 22 30 26 23 21 22 26 38 40 45 41 61 50 38 34 30 28 30 35 41 41
86 86 84 76 56 50 38 42 37 36 36 37 35 29 35 29 30 26 22 22 18 26 32 30 23 29 32 32 24 27 22 31 43 38 50 54 52 29 21 13 7 15 34 41 37
88 87 79 67 52 53 49 45 31 35 38 36 37 32 30 24 16 18 20 21 20 28 31 27 25 24 28 32 35 21 11 28 42 35 44 62 51 38 32 27 18 18 28 40 40
Wind_Direction
321 319 318 318 318 318 319 315 311 306 302 303 296 292 289 289 288 289 288 286 280 269 263 256 257 255 251 251 251 251 251 249 246 245 239 236 240 238 243 245 246 251 249 247 245
319 318 318 318 318 317 318 315 314 310 303 302 298 292 290 288 286 288 285 284 278 271 262 256 249 248 250 248 246 249 251 254 249 244 238 235 235 235 240 241 244 248 249 250 250
316 318 318 319 318 313 312 314 314 312 308 302 298 291 288 286 285 285 284 281 278 272 263 256 248 245 244 246 246 245 248 250 250 243 238 236 234 232 236 239 241 249 253 249 248
317 319 320 319 320 319 317 313 309 308 306 300 295 291 285 285 291 280 281 282 279 275 267 256 249 244 242 244 245 245 245 244 244 242 241 237 236 232 235 236 237 244 246 244 241
322 322 323 322 324 321 318 314 310 306 303 299 296 292 288 286 289 288 286 284 278 272 268 259 250 244 241 242 243 243 242 241 239 238 239 236 237 236 233 234 235 240 247 241 238
324 324 325 324 322 319 319 316 307 304 302 300 298 292 288 294 291 290 285 284 276 268 262 257 247 243 242 242 242 243 243 241 238 232 234 237 233 236 233 232 234 238 244 242 247
326 324 323 321 321 320 321 322 315 307 305 300 293 288 287 298 295 294 288 284 277 265 261 251 245 240 241 242 241 242 242 242 237 233 233 238 235 233 234 234 231 235 241 240 241
327 325 323 323 322 322 322 322 318 308 303 297 290 287 287 294 294 294 294 288 276 266 258 251 243 240 240 241 242 242 241 241 237 235 234 237 237 234 234 237 234 235 239 239 234
328 325 324 325 325 325 323 322 315 311 303 290 288 288 291 293 296 300 302 290 278 267 258 251 245 239 239 241 240 239 240 240 237 241 236 237 240 236 237 236 237 235 236 237 234
328 327 326 325 323 324 322 320 316 312 299 289 287 291 294 298 297 303 302 296 282 273 264 250 245 241 237 239 241 244 244 240 235 233 239 237 237 234 236 235 235 236 235 233 237
330 327 325 325 324 322 322 319 317 306 296 287 285 287 301 295 297 300 302 299 287 276 264 256 246 246 245 241 242 245 244 242 239 236 240 235 234 235 234 235 239 234 233 231 234
329 326 325 327 325 324 322 322 312 302 289 289 289 296 295 298 300 300 303 300 292 278 259 254 256 247 240 240 238 240 240 238 236 234 239 233 232 236 234 232 236 235 233 231 230
330 328 328 329 326 326 325 322 310 294 289 286 291 296 299 301 300 302 298 299 294 284 268 259 254 247 242 239 237 236 236 232 234 236 239 238 237 236 233 235 230 232 230 230 226
330 330 331 330 328 329 329 321 306 296 294 296 295 298 297 298 298 296 299 291 280 273 265 270 260 253 252 247 248 243 236 236 234 237 240 239 247 241 239 239 232 229 227 229 223
329 331 334 333 331 330 328 322 304 293 291 293 299 297 296 298 299 301 287 279 275 272 269 273 267 263 256 256 246 245 237 237 236 235 240 230 237 238 241 241 232 223 227 229 223
330 333 335 333 331 332 329 316 304 301 296 298 297 299 298 300 295 291 286 283 280 272 274 274 265 266 267 254 247 247 240 234 235 234 239 230 235 242 243 239 236 220 221 227 224
333 335 334 333 332 333 328 320 300 298 297 300 299 300 300 296 291 283 283 279 286 290 293 290 288 276 264 260 244 243 241 238 235 230 235 232 237 240 238 239 232 221 219 225 226
335 334 334 332 333 333 331 319 300 296 299 298 299 301 300 294 287 289 277 281 288 299 313 313 296 280 260 258 252 238 238 231 237 230 237 238 237 235 239 243 235 220 220 221 225
335 333 333 333 334 333 330 317 304 303 302 302 300 302 305 291 290 286 281 278 282 298 317 319 303 287 273 256 248 240 231 227 238 233 231 232 240 237 232 230 229 227 224 221 223
335 332 332 336 335 333 325 320 304 303 303 300 302 308 306 295 292 290 282 279 287 310 317 319 303 290 257 239 222 239 237 222 230 229 228 227 227 224 231 234 233 233 224 223 221
335 334 336 336 331 326 313 297 292 293 293 301 300 303 304 300 292 289 286 281 294 303 317 302 292 291 263 225 213 244 231 216 222 238 225 234 233 209 222 239 230 227 224 223 222
334 334 334 333 328 324 320 307 292 293 294 296 298 306 306 309 303 289 291 292 288 300 318 292 294 273 265 222 226 229 214 223 222 223 235 226 218 228 226 236 241 228 216 228 230
334 333 335 331 326 321 319 317 309 297 305 304 299 301 303 299 297 301 297 283 288 303 306 293 285 262 248 219 222 232 215 217 225 232 225 216 180 162 199 212 230 238 220 217 223
334 334 335 332 324 318 307 318 289 293 289 291 301 289 292 286 301 303 286 285 290 299 291 288 274 248 237 232 224 229 236 219 233 223 224 197 188 158 189 191 211 232 223 222 227
334 335 336 330 322 316 307 324 302 295 288 299 309 293 291 303 300 295 292 302 294 305 301 294 281 243 234 234 257 247 226 225 229 230 216 216 213 213 174 201 211 208 220 213 215
335 336 334 329 322 312 305 314 292 291 286 300 307 288 291 301 292 289 291 286 293 318 300 291 283 248 235 241 245 245 244 228 217 223 218 215 190 202 175 187 185 185 195 205 206
336 335 335 329 308 299 303 309 306 287 290 296 297 295 304 295 303 297 292 291 298 309 319 289 279 264 244 243 238 232 242 239 218 219 225 215 201 217 224 211 190 181 204 185 192